Weather History for KOTH - April, 2014

Change the Weather History Date:

Friday, April 4, 2014

  Actual Average Record
Temperature  
Mean Temperature 49 °F 48 °F  
Max Temperature 55 °F 54 °F 78 °F (1950)
Min Temperature 43 °F 42 °F 30 °F (1930)
Degree Days  
Heating Degree Days 16 17  
Month to date heating degree days 69 68  
Since 1 July heating degree days 3302 3780  
Cooling Degree Days 0 0  
Month to date cooling degree days 0 0  
Year to date cooling degree days 0 0  
Moisture  
Dew Point 46 °F    
Average Humidity 89    
Maximum Humidity 100    
Minimum Humidity 66    
Precipitation  
Precipitation 0.08 in 0.21 in 1.35 in (1941)
Month to date precipitation 0.30 0.86  
Year to date precipitation 16.37 26.47  
Sea Level Pressure  
Sea Level Pressure 30.03 in    
Wind  
Wind Speed 7 mph (South)    
Max Wind Speed 13 mph    
Max Gust Speed 16 mph    
Visibility 9 miles    
Events      
T = Trace of Precipitation, MM = Missing Value Source: NWS Daily Summary

Daily Weather History Graph

Daily Weather History Graph

Search for Another Location

Airport or City:

Trip Planner

Search our weather history database for the weather conditions in past years. The results will help you decide how hot, cold, wet, or windy it might be!

Date:

Astronomy

Apr. 04, 2014 Rise Set
Actual Time 6:53 AM PDT 7:47 PM PDT
Civil Twilight 6:24 AM PDT 8:16 PM PDT
Nautical Twilight 5:49 AM PDT 8:51 PM PDT
Astronomical Twilight 5:13 AM PDT 9:27 PM PDT
Moon 10:08 AM PDT (4/4) 12:16 AM PDT (4/4)
Length of Visible Light 13h 52m
Length of Day
12h 54m
Waxing Crescent, 26% of the Moon is Illuminated
Apr 4
Waxing Crescent
Apr 7
First Quarter
Apr 15
Full
Apr 22
Last Quarter
Apr 28
New

Hourly Weather History & Observations

Time (PDT) Temp. Windchill Dew Point Humidity Pressure Visibility Wind Dir Wind Speed Gust Speed Precip Events Conditions
12:15 AM 48.2 °F - 48.2 °F 100% 30.04 in 10.0 mi SSE 5.8 mph - N/A   Overcast
12:35 AM 48.2 °F - 48.2 °F 100% 30.04 in 10.0 mi SSE 4.6 mph - N/A   Overcast
12:55 AM 48.2 °F - 46.4 °F 93% 30.04 in 10.0 mi SE 9.2 mph - N/A   Mostly Cloudy
1:15 AM 48.2 °F - 46.4 °F 93% 30.03 in 10.0 mi SSE 6.9 mph - N/A   Overcast
1:35 AM 48.2 °F - 48.2 °F 100% 30.03 in 10.0 mi South 6.9 mph - N/A   Overcast
1:55 AM 48.2 °F - 48.2 °F 100% 30.03 in 10.0 mi South 5.8 mph - N/A   Overcast
2:15 AM 48.2 °F - 48.2 °F 100% 30.02 in 9.0 mi South 3.5 mph - N/A   Overcast
2:35 AM 48.2 °F - 48.2 °F 100% 30.02 in 10.0 mi South 4.6 mph - 0.01 in   Overcast
2:55 AM 48.2 °F - 48.2 °F 100% 30.02 in 10.0 mi SSE 4.6 mph - 0.01 in   Overcast
3:15 AM 46.4 °F 44.3 °F 46.4 °F 100% 30.02 in 10.0 mi South 4.6 mph - N/A   Overcast
3:35 AM 46.4 °F 45.2 °F 46.4 °F 100% 30.02 in 10.0 mi South 3.5 mph - N/A   Overcast
3:55 AM 46.4 °F 45.2 °F 46.4 °F 100% 30.02 in 10.0 mi South 3.5 mph - N/A   Overcast
4:15 AM 46.4 °F 45.2 °F 46.4 °F 100% 30.02 in 10.0 mi SSE 3.5 mph - N/A   Overcast
4:35 AM 46.4 °F 44.3 °F 46.4 °F 100% 30.02 in 10.0 mi SSE 4.6 mph - N/A   Overcast
4:55 AM 46.4 °F 44.3 °F 46.4 °F 100% 30.02 in 10.0 mi SSE 4.6 mph - N/A   Overcast
5:15 AM 46.4 °F - 46.4 °F 100% 30.02 in 7.0 mi Calm Calm - N/A   Overcast
5:35 AM 46.4 °F 44.3 °F 46.4 °F 100% 30.02 in 10.0 mi SSE 4.6 mph - N/A   Mostly Cloudy
5:55 AM 46.4 °F 45.2 °F 46.4 °F 100% 30.02 in 10.0 mi South 3.5 mph - 0.01 in   Overcast
6:15 AM 46.4 °F 44.3 °F 44.6 °F 93% 30.02 in 10.0 mi South 4.6 mph - N/A   Overcast
6:35 AM 44.6 °F 42.2 °F 44.6 °F 100% 30.02 in 10.0 mi SSE 4.6 mph - N/A   Mostly Cloudy
6:55 AM 44.6 °F 43.1 °F 44.6 °F 100% 30.03 in 10.0 mi SSE 3.5 mph - N/A   Mostly Cloudy
7:15 AM 44.6 °F 43.1 °F 44.6 °F 100% 30.03 in 8.0 mi South 3.5 mph - N/A   Scattered Clouds
7:35 AM 44.6 °F 42.2 °F 42.8 °F 93% 30.03 in 7.0 mi SSE 4.6 mph - N/A   Clear
7:55 AM 44.6 °F 41.4 °F 44.6 °F 100% 30.03 in 8.0 mi SSE 5.8 mph - N/A   Scattered Clouds
8:15 AM 46.4 °F 43.5 °F 46.4 °F 100% 30.04 in 7.0 mi SSE 5.8 mph - N/A   Mostly Cloudy
8:35 AM 46.4 °F 43.5 °F 46.4 °F 100% 30.04 in 2.5 mi SE 5.8 mph - N/A   Overcast
8:55 AM 46.4 °F 43.5 °F 46.4 °F 100% 30.04 in 3.0 mi SSE 5.8 mph - N/A   Overcast
9:15 AM 48.2 °F - 48.2 °F 100% 30.04 in 10.0 mi SE 3.5 mph - N/A   Overcast
9:35 AM 50.0 °F - 50.0 °F 100% 30.04 in 10.0 mi ESE 3.5 mph - N/A   Scattered Clouds
9:55 AM 50.0 °F - 48.2 °F 94% 30.04 in 10.0 mi ESE 3.5 mph - N/A   Scattered Clouds
10:15 AM 51.8 °F - 46.4 °F 82% 30.04 in 10.0 mi South 3.5 mph - N/A   Mostly Cloudy
10:35 AM 51.8 °F - 44.6 °F 76% 30.04 in 10.0 mi South 3.5 mph - N/A   Mostly Cloudy
10:55 AM 53.6 °F - 44.6 °F 72% 30.04 in 10.0 mi SE 4.6 mph - N/A   Mostly Cloudy
11:15 AM 53.6 °F - 42.8 °F 67% 30.05 in 10.0 mi Calm Calm - N/A   Mostly Cloudy
11:55 AM 51.8 °F - 44.6 °F 76% 30.05 in 10.0 mi West 9.2 mph - N/A   Mostly Cloudy
12:15 PM 53.6 °F - 44.6 °F 72% 30.05 in 10.0 mi West 9.2 mph - N/A   Mostly Cloudy
12:35 PM 53.6 °F - 42.8 °F 67% 30.04 in 10.0 mi West 10.4 mph - N/A   Overcast
12:55 PM 53.6 °F - 42.8 °F 67% 30.04 in 10.0 mi West 11.5 mph - N/A   Overcast
1:15 PM 55.4 °F - 41.0 °F 58% 30.04 in 10.0 mi West 11.5 mph - N/A   Overcast
1:35 PM 55.4 °F - 42.8 °F 63% 30.03 in 10.0 mi West 12.7 mph - N/A   Mostly Cloudy
1:55 PM 53.6 °F - 42.8 °F 67% 30.03 in 10.0 mi West 12.7 mph - N/A   Mostly Cloudy
2:15 PM 53.6 °F - 44.6 °F 72% 30.03 in 10.0 mi West 13.8 mph - N/A   Overcast
2:35 PM 53.6 °F - 44.6 °F 72% 30.03 in 10.0 mi West 12.7 mph - N/A   Overcast
2:55 PM 53.6 °F - 42.8 °F 67% 30.02 in 10.0 mi West 12.7 mph - N/A   Overcast
3:15 PM 53.6 °F - 44.6 °F 72% 30.02 in 10.0 mi West 13.8 mph - N/A   Overcast
3:35 PM 53.6 °F - 42.8 °F 67% 30.02 in 10.0 mi WSW 12.7 mph - N/A   Overcast
3:55 PM 53.6 °F - 44.6 °F 72% 30.03 in 10.0 mi WSW 10.4 mph - N/A   Overcast
4:15 PM 53.6 °F - 44.6 °F 72% 30.03 in 10.0 mi WSW 10.4 mph - N/A   Overcast
4:35 PM 51.8 °F - 44.6 °F 76% 30.03 in 10.0 mi WSW 9.2 mph - N/A   Overcast
4:55 PM 51.8 °F - 44.6 °F 76% 30.03 in 10.0 mi WSW 5.8 mph - N/A   Overcast
5:15 PM 51.8 °F - 44.6 °F 76% 30.03 in 10.0 mi SW 6.9 mph - N/A   Overcast
5:35 PM 51.8 °F - 44.6 °F 76% 30.03 in 10.0 mi SW 8.1 mph - N/A   Overcast
5:55 PM 51.8 °F - 44.6 °F 76% 30.04 in 10.0 mi SW 6.9 mph - N/A   Overcast
6:15 PM 51.8 °F - 46.4 °F 82% 30.03 in 10.0 mi SSW 6.9 mph - N/A   Overcast
6:35 PM 51.8 °F - 46.4 °F 82% 30.04 in 10.0 mi SSW 9.2 mph - N/A   Overcast
6:55 PM 50.0 °F - 46.4 °F 87% 30.03 in 10.0 mi SW 11.5 mph 16.1 mph N/A   Overcast
7:15 PM 48.2 °F - 46.4 °F 93% 30.03 in 10.0 mi South 6.9 mph - N/A   Overcast
7:35 PM 48.2 °F - 48.2 °F 100% 30.03 in 10.0 mi South 5.8 mph - N/A   Overcast
7:55 PM 48.2 °F - 46.4 °F 93% 30.03 in 10.0 mi South 8.1 mph - N/A   Overcast
8:15 PM 48.2 °F - 46.4 °F 93% 30.03 in 10.0 mi South 6.9 mph - N/A   Overcast
8:35 PM 48.2 °F - 46.4 °F 93% 30.04 in 10.0 mi South 8.1 mph - N/A   Overcast
8:55 PM 48.2 °F - 46.4 °F 93% 30.04 in 10.0 mi South 8.1 mph - N/A   Overcast
9:15 PM 48.2 °F - 48.2 °F 100% 30.05 in 10.0 mi SSE 5.8 mph - 0.01 in   Overcast
9:35 PM 48.2 °F - 48.2 °F 100% 30.05 in 10.0 mi SSE 6.9 mph - 0.01 in   Overcast
9:55 PM 48.2 °F - 46.4 °F 93% 30.05 in 9.0 mi SSE 6.9 mph - 0.02 in   Overcast
10:15 PM 48.2 °F - 46.4 °F 93% 30.05 in 9.0 mi SSE 6.9 mph - 0.01 in   Overcast
10:35 PM 48.2 °F - 48.2 °F 100% 30.05 in 5.0 mi SE 6.9 mph - 0.02 in   Overcast
10:55 PM 48.2 °F - 48.2 °F 100% 30.05 in 8.0 mi SSE 8.1 mph - 0.03 in   Overcast
11:15 PM 48.2 °F - 48.2 °F 100% 30.06 in 8.0 mi SSE 9.2 mph - N/A   Overcast
11:35 PM 48.2 °F - 48.2 °F 100% 30.05 in 8.0 mi SSE 10.4 mph - N/A   Overcast
11:55 PM 48.2 °F - 48.2 °F 100% 30.06 in 10.0 mi SSE 8.1 mph - 0.01 in   Overcast